Weather observations for the past three days for
Weaverville
Imperial (Metric)
Date Time (pdt) Wind (mph) Vis. (mi.) Weather Sky Cond. Temperature (ºF) Relative Humidity Wind Chill (°F) Heat Index (°F) Pressure Precipitation (in)
Air Dwpt 6 hour altimeter (in) sea level (mb) 1 hr 3 hr 6 hr
Max. Min.
12 19:15 Vrbl 7 10.00 Fair CLR 104 33.8 9% 98 29.88 0.0
12 18:55 Vrbl 5 G 12 10.00 Fair CLR 104 28.4 7% 98 29.88 0.0
12 18:25 SW 9 G 16 10.00 Fair CLR 105.8 24.8 6% 99 29.87 0.0
12 18:15 SW 8 10.00 Fair CLR 105.8 24.8 6% 99 29.87 0.0
12 17:55 SW 12 10.00 Fair CLR 107.6 23 5% 100 29.88 0.0
12 17:35 Vrbl 7 10.00 Fair CLR 107.6 23 5% 100 29.88 0.0
12 17:15 S 12 10.00 Fair CLR 107.6 24.8 5% 100 29.88 0.0
12 16:55 Vrbl 5 10.00 Fair CLR 105.8 39.2 10% 100 29.88 0.0
12 16:35 Calm 10.00 Fair CLR 105.8 41 11% 101 29.89 0.0
12 16:15 Vrbl 6 10.00 Fair CLR 105.8 39.2 10% 100 29.89 0.0
12 15:55 Vrbl 7 10.00 Fair CLR 105.8 41 11% 101 29.9 0.0
12 15:35 SW 7 10.00 Fair CLR 105.8 39.2 10% 100 29.91 0.0
12 15:15 Calm 10.00 Fair CLR 105.8 41 11% 101 29.91 0.0
12 14:55 Vrbl 6 G 14 10.00 Fair CLR 105.8 39.2 10% 100 29.92 0.0
12 14:35 Vrbl 5 10.00 Fair CLR 105.8 41 11% 101 29.92 0.0
12 14:15 Vrbl 6 G 13 10.00 Fair CLR 104 39.2 11% 99 29.92 0.0
12 13:55 Calm 10.00 Fair CLR 102.2 37.4 11% 97 29.92 0.0
12 13:30 S 6 10.00 Fair CLR 102.2 42.8 13% 98 29.93 0.0
12 13:15 SW 6 10.00 Fair CLR 100.4 42.8 14% 96 29.94 0.0
12 12:55 Vrbl 5 10.00 Fair CLR 100.4 46.4 16% 97 29.94 0.0
12 12:35 Calm 10.00 Fair CLR 98.6 51.8 21% 96 29.95 0.0
12 12:15 Vrbl 3 10.00 Fair CLR 96.8 53.6 23% 95 29.96 0.0
12 11:55 Calm 10.00 Fair CLR 95 53.6 25% 93 29.96 0.0
12 11:35 Calm 10.00 Fair CLR 91.4 53.6 28% 89 29.97 0.0
12 11:15 Calm 9.00 Fair CLR 89.6 53.6 29% 87 29.97 0.0
12 10:55 S 5 10.00 Fair CLR 87.8 53.6 31% 86 29.98 0.0
12 10:35 SW 5 10.00 Fair CLR 86 53.6 33% 84 29.98 0.0
12 10:15 Calm 10.00 Fair CLR 84.2 51.8 33% 82 29.99 0.0
12 09:55 Calm 10.00 Fair CLR 82.4 51.8 35% 81 29.99 0.0
12 09:35 Calm 10.00 Fair CLR 78.8 51.8 39% 79 29.99 0.0
12 09:15 Calm 10.00 Fair CLR 77 51.8 42% 78 30 0.0
12 08:55 Calm 10.00 Fair CLR 75.2 51.8 44% 78 30 0.0
12 08:35 Calm 10.00 Fair CLR 73.4 51.8 47% 30 0.0
12 08:15 Calm 10.00 Fair CLR 69.8 51.8 53% 30 0.0
12 07:55 Calm 10.00 Fair CLR 68 53.6 60% 30 0.0
12 07:35 Calm 10.00 Fair CLR 66.2 51.8 60% 30 0.0
12 07:15 Calm 10.00 Fair CLR 62.6 51.8 68% 30 0.0
12 06:55 Calm 10.00 Fair CLR 60.8 50 68% 30 0.0
12 06:35 Calm 10.00 Fair CLR 60.8 50 68% 29.99 0.0
12 06:15 Calm 10.00 Fair CLR 60.8 50 68% 29.99 0.0
12 05:55 Calm 10.00 Fair CLR 60.8 50 68% 29.98 0.0
12 05:35 Calm 10.00 Fair CLR 60.8 50 68% 29.98 0.0
12 05:15 Calm 10.00 Fair CLR 62.6 50 64% 29.98 0.0
12 04:55 Calm 10.00 Fair CLR 62.6 50 64% 29.98 0.0
12 04:35 Calm 10.00 Fair CLR 62.6 50 64% 29.97 0.0
12 04:15 Calm 10.00 Fair CLR 62.6 50 64% 29.97 0.0
12 03:55 Calm 10.00 Fair CLR 64.4 50 60% 29.97 0.0
12 03:35 Calm 10.00 Fair CLR 64.4 50 60% 29.97 0.0
12 03:15 Calm 10.00 Fair CLR 66.2 50 56% 29.97 0.0
12 02:55 Calm 10.00 Fair CLR 66.2 50 56% 29.97 0.0
12 02:35 Calm 10.00 Fair CLR 66.2 50 56% 29.97 0.0
12 02:15 Calm 10.00 Fair CLR 68 50 53% 29.98 0.0
12 01:55 Calm 10.00 Fair CLR 68 48.2 49% 29.98 0.0
12 01:35 Calm 10.00 Fair CLR 69.8 50 50% 29.97 0.0
12 01:15 Calm 10.00 Fair CLR 69.8 48.2 46% 29.97 0.0
12 00:55 Calm 10.00 Fair CLR 69.8 48.2 46% 29.97 0.0
12 00:35 Calm 10.00 Fair CLR 71.6 48.2 44% 29.97 0.0
12 00:15 N 3 10.00 Fair CLR 71.6 50 47% 29.97 0.0
11 23:55 Calm 10.00 Fair CLR 71.6 50 47% 29.96 0.0
11 23:35 NE 5 10.00 Fair CLR 73.4 50 44% 29.96 0.0
11 23:15 NE 3 10.00 Fair CLR 75.2 50 41% 78 29.96 0.0
11 22:55 NE 3 10.00 Fair CLR 75.2 50 41% 78 29.95 0.0
11 22:30 NE 3 10.00 Fair CLR 77 51.8 42% 78 29.95 0.0
11 22:15 Calm 10.00 Fair CLR 77 51.8 42% 78 29.95 0.0
11 21:55 Calm 10.00 Fair CLR 78.8 51.8 39% 79 29.94 0.0
11 21:35 Calm 10.00 Fair CLR 80.6 53.6 39% 80 29.94 0.0
11 21:15 N 3 10.00 Fair CLR 82.4 55.4 40% 82 29.93 0.0
11 20:55 Calm 10.00 Fair CLR 84.2 55.4 37% 83 29.92 0.0
11 20:35 Vrbl 5 10.00 Fair CLR 91.4 51.8 26% 89 29.92 0.0
11 20:10 Vrbl 3 10.00 Fair CLR 96.8 46.4 18% 93 29.91 0.0
11 19:55 W 5 10.00 Fair CLR 98.6 46.4 17% 95 29.91 0.0
11 19:35 Calm 10.00 Fair CLR 100.4 46.4 16% 97 29.9 0.0
11 19:15 Vrbl 3 10.00 Fair CLR 100.4 44.6 15% 96 29.9 0.0
11 18:55 Calm 10.00 Fair CLR 102.2 48.2 16% 99 29.9 0.0
11 16:10 S 5 10.00 Fair CLR 105.8 48.2 14% 102 29.91 0.0
11 15:55 Calm 10.00 Fair CLR 105.8 46.4 13% 102 29.92 0.0
11 15:35 Vrbl 7 10.00 Fair CLR 104 46.4 14% 100 29.92 0.0
11 15:15 Vrbl 5 10.00 Fair CLR 105.8 46.4 13% 102 29.92 0.0
11 14:55 Vrbl 6 10.00 Fair CLR 102.2 44.6 14% 98 29.93 0.0
11 14:35 SW 7 10.00 Fair CLR 104 46.4 14% 100 29.94 0.0
11 14:15 Vrbl 5 10.00 Fair CLR 102.2 46.4 15% 98 29.95 0.0
11 13:55 Calm 10.00 Fair CLR 100.4 46.4 16% 97 29.95 0.0
11 13:35 Calm 10.00 Fair CLR 100.4 44.6 15% 96 29.96 0.0
11 13:15 Calm 10.00 Fair CLR 100.4 46.4 16% 97 29.97 0.0
11 12:55 S 7 10.00 Fair CLR 98.6 53.6 22% 96 29.97 0.0
11 12:35 SW 6 10.00 Fair CLR 98.6 53.6 22% 96 29.98 0.0
11 12:15 Calm 10.00 Fair CLR 96.8 53.6 23% 95 29.99 0.0
11 11:55 Calm 10.00 Fair CLR 95 57.2 28% 94 29.99 0.0
11 11:35 Vrbl 3 10.00 Fair CLR 91.4 55.4 30% 90 30 0.0
11 11:15 Calm 10.00 Fair CLR 89.6 55.4 31% 88 30 0.0
11 10:55 Vrbl 5 10.00 Fair CLR 87.8 55.4 33% 86 30.01 0.0
11 10:35 Calm 10.00 Fair CLR 86 53.6 33% 84 30.01 0.0
11 10:15 Calm 10.00 Fair CLR 84.2 53.6 35% 83 30.01 0.0
11 09:55 Calm 10.00 Fair CLR 82.4 53.6 37% 81 30.02 0.0
11 09:35 SW 5 10.00 Fair CLR 80.6 53.6 39% 80 30.02 0.0
11 09:15 Calm 10.00 Fair CLR 78.8 51.8 39% 79 30.03 0.0
11 08:55 Calm 10.00 Fair CLR 77 51.8 42% 78 30.03 0.0
11 08:35 Calm 10.00 Fair CLR 75.2 53.6 47% 78 30.03 0.0
11 08:15 Calm 10.00 Fair CLR 71.6 53.6 53% 30.03 0.0
11 07:55 Calm 10.00 Fair CLR 69.8 53.6 57% 30.03 0.0
11 07:35 Calm 10.00 Fair CLR 68 53.6 60% 30.03 0.0
11 06:55 Calm 10.00 Fair CLR 64.4 51.8 64% 30.03 0.0
11 06:35 Calm 10.00 Fair CLR 62.6 51.8 68% 30.02 0.0
11 06:15 Calm 10.00 Fair CLR 62.6 51.8 68% 30.02 0.0
11 05:55 Calm 10.00 Fair CLR 62.6 51.8 68% 30.02 0.0
11 05:30 Calm 10.00 Fair CLR 62.6 51.8 68% 30.01 0.0
11 05:15 Calm 10.00 Fair CLR 64.4 51.8 64% 30.01 0.0
11 04:55 Calm 10.00 Fair CLR 64.4 50 60% 30.01 0.0
11 04:35 Calm 10.00 Fair CLR 64.4 51.8 64% 30.01 0.0
11 04:15 Calm 10.00 Fair CLR 64.4 51.8 64% 30 0.0
11 03:55 Calm 10.00 Fair CLR 66.2 50 56% 30 0.0
11 03:35 Calm 10.00 Fair CLR 66.2 51.8 60% 30 0.0
11 03:15 Calm 10.00 Fair CLR 66.2 50 56% 30 0.0
11 02:55 Calm 10.00 Fair CLR 68 51.8 56% 30 0.0
11 02:35 Calm 10.00 Fair CLR 68 51.8 56% 30 0.0
11 02:15 Calm 10.00 Fair CLR 68 51.8 56% 30 0.0
11 01:55 Calm 10.00 Fair CLR 69.8 50 50% 30 0.0
11 01:35 Calm 10.00 Fair CLR 71.6 51.8 50% 30 0.0
11 01:15 Calm 10.00 Fair CLR 71.6 51.8 50% 30 0.0
11 00:55 Calm 10.00 Fair CLR 71.6 51.8 50% 30 0.0
11 00:35 Calm 10.00 Fair CLR 71.6 51.8 50% 30 0.0
11 00:15 Calm 10.00 NULL NULL 73.4 51.8 47% 30 0.0
10 23:55 Calm 10.00 Fair CLR 73.4 51.8 47% 30 0.0
10 23:35 Calm 10.00 Fair CLR 75.2 51.8 44% 78 29.99 0.0
10 23:15 Calm 10.00 Fair CLR 77 53.6 44% 78 29.99 0.0
10 22:55 Calm 10.00 Fair CLR 77 53.6 44% 78 29.98 0.0
10 22:35 Calm 10.00 Fair CLR 78.8 53.6 42% 79 29.98 0.0
10 22:15 Calm 10.00 Fair CLR 78.8 55.4 45% 79 29.98 0.0
10 21:55 NE 5 10.00 Fair CLR 80.6 55.4 42% 81 29.97 0.0
10 21:35 N 5 10.00 Fair CLR 84.2 55.4 37% 83 29.96 0.0
10 21:15 SW 7 G 13 10.00 Fair CLR 91.4 50 24% 88 29.95 0.0
10 20:55 SW 10 10.00 Fair CLR 91.4 50 24% 88 29.95 0.0
10 20:35 Vrbl 7 10.00 Fair CLR 93.2 48.2 21% 90 29.94 0.0
10 20:15 Vrbl 7 G 13 10.00 Fair CLR 93.2 48.2 21% 90 29.94 0.0
10 19:55 Vrbl 6 G 14 10.00 Fair CLR 95 48.2 20% 92 29.93 0.0
10 19:35 SW 8 G 14 10.00 Fair CLR 96.8 48.2 19% 93 29.93 0.0
10 19:15 SW 9 10.00 Fair CLR 98.6 48.2 18% 95 29.92 0.0
10 18:55 Vrbl 7 G 16 10.00 Fair CLR 98.6 50 19% 95 29.92 0.0
10 18:35 SW 10 G 23 10.00 Fair CLR 100.4 50 18% 97 29.91 0.0
10 18:15 SW 7 G 18 10.00 Fair CLR 102.2 50 17% 99 29.91 0.0
10 17:55 Vrbl 6 G 13 10.00 Fair CLR 102.2 50 17% 99 29.91 0.0
10 17:35 SW 9 10.00 Fair CLR 104 48.2 15% 101 29.92 0.0
10 17:15 Vrbl 6 10.00 Fair CLR 105.8 46.4 13% 102 29.92 0.0
10 16:55 Calm 10.00 Fair CLR 104 44.6 13% 100 29.92 0.0
10 16:35 Vrbl 5 10.00 Fair CLR 104 42.8 12% 99 29.92 0.0
10 16:15 Vrbl 5 10.00 Fair CLR 105.8 42.8 12% 101 29.93 0.0
10 15:55 Calm 10.00 Fair CLR 105.8 44.6 13% 101 29.93 0.0
10 15:35 Vrbl 5 G 13 10.00 Fair CLR 104 42.8 12% 99 29.94 0.0
10 15:15 Calm 10.00 Fair CLR 105.8 42.8 12% 101 29.95 0.0
10 14:55 Vrbl 5 10.00 Fair CLR 104 44.6 13% 100 29.95 0.0
10 14:35 Vrbl 5 10.00 Fair CLR 104 44.6 13% 100 29.96 0.0
10 14:15 Calm 10.00 Fair CLR 102.2 44.6 14% 98 29.97 0.0
10 13:55 Vrbl 6 10.00 Fair CLR 102.2 41 12% 97 29.97 0.0
10 13:35 Calm 10.00 Fair CLR 100.4 46.4 16% 97 29.97 0.0
10 13:15 Calm 10.00 Fair CLR 98.6 48.2 18% 95 29.98 0.0
10 12:55 Calm 10.00 Fair CLR 98.6 44.6 16% 95 29.98 0.0
10 12:35 Calm 10.00 Fair CLR 96.8 46.4 18% 93 29.99 0.0
10 12:15 Calm 10.00 Fair CLR 95 50 22% 92 29.99 0.0
10 11:55 Calm 10.00 Fair CLR 93.2 51.8 24% 90 30 0.0
10 11:35 Calm 9.00 Fair CLR 91.4 53.6 28% 89 30 0.0
10 11:15 Vrbl 3 9.00 Fair CLR 91.4 53.6 28% 89 30.01 0.0
10 10:55 Calm 10.00 Fair CLR 87.8 53.6 31% 86 30.01 0.0
10 10:35 Calm 10.00 Fair CLR 86 55.4 35% 85 30.01 0.0
10 10:15 Calm 10.00 Fair CLR 84.2 55.4 37% 83 30.02 0.0
10 09:55 Calm 10.00 Fair CLR 82.4 53.6 37% 81 30.02 0.0
10 09:35 Calm 10.00 Fair CLR 80.6 53.6 39% 80 30.02 0.0
10 09:15 Calm 10.00 Fair CLR 78.8 51.8 39% 79 30.03 0.0
10 08:55 Calm 10.00 Fair CLR 77 51.8 42% 78 30.03 0.0
10 08:35 Calm 10.00 Fair CLR 73.4 51.8 47% 30.03 0.0
10 08:15 Calm 10.00 Fair CLR 71.6 53.6 53% 30.03 0.0
10 07:55 Calm 10.00 Fair CLR 69.8 53.6 57% 30.03 0.0
10 07:30 Calm 10.00 Fair CLR 68 53.6 60% 30.02 0.0
10 07:15 Calm 10.00 Fair CLR 66.2 53.6 64% 30.02 0.0
10 06:55 Calm 10.00 Fair CLR 64.4 53.6 68% 30.01 0.0
10 06:35 Calm 10.00 Fair CLR 62.6 51.8 68% 30.01 0.0
10 06:15 Calm 10.00 Fair CLR 62.6 51.8 68% 30.01 0.0
10 05:55 Calm 10.00 Fair CLR 62.6 51.8 68% 30 0.0
10 05:35 Calm 10.00 Fair CLR 64.4 51.8 64% 30 0.0
10 05:15 Calm 10.00 Fair CLR 64.4 51.8 64% 29.99 0.0
10 04:55 Calm 10.00 Fair CLR 64.4 51.8 64% 29.99 0.0
10 04:35 Calm 10.00 Fair CLR 64.4 51.8 64% 29.99 0.0
10 04:15 Calm 10.00 Fair CLR 64.4 51.8 64% 29.98 0.0
10 03:55 Calm 10.00 Fair CLR 64.4 51.8 64% 29.98 0.0
10 03:35 Calm 10.00 Fair CLR 66.2 51.8 60% 29.98 0.0
10 03:15 Calm 10.00 Fair CLR 66.2 51.8 60% 29.98 0.0
10 02:55 Calm 10.00 Fair CLR 66.2 51.8 60% 29.97 0.0
10 02:35 Calm 10.00 Fair CLR 68 51.8 56% 29.97 0.0
10 02:15 Calm 10.00 Fair CLR 68 51.8 56% 29.98 0.0
10 01:55 Calm 10.00 Fair CLR 69.8 51.8 53% 29.98 0.0
10 01:35 Calm 10.00 Fair CLR 69.8 51.8 53% 29.97 0.0
10 01:15 Calm 10.00 Fair CLR 69.8 51.8 53% 29.97 0.0
10 00:35 Calm 10.00 Fair CLR 71.6 51.8 50% 29.97 0.0
10 00:10 Calm 10.00 Fair CLR 73.4 50 44% 29.96 0.0
09 23:55 Calm 10.00 Fair CLR 73.4 50 44% 29.96 0.0
09 23:15 Calm 10.00 Fair CLR 75.2 50 41% 78 29.95 0.0
09 22:55 Calm 10.00 Fair CLR 75.2 50 41% 78 29.94 0.0
09 22:35 Calm 10.00 Fair CLR 75.2 50 41% 78 29.94 0.0
09 22:15 Calm 10.00 Fair CLR 77 50 39% 78 29.93 0.0
09 21:55 Calm 10.00 Fair CLR 78.8 51.8 39% 79 29.93 0.0
09 21:35 NE 5 10.00 Fair CLR 80.6 51.8 37% 80 29.91 0.0
09 21:15 Calm 10.00 Fair CLR 80.6 53.6 39% 80 29.91 0.0
09 20:55 NE 3 10.00 Fair CLR 84.2 55.4 37% 83 29.9 0.0
09 20:35 Calm 10.00 Fair CLR 87.8 53.6 31% 86 29.89 0.0
09 20:15 Calm 10.00 Fair CLR 93.2 48.2 21% 90 29.89 0.0
09 19:55 S 3 10.00 Fair CLR 96.8 46.4 18% 93 29.88 0.0
09 19:35 Calm 10.00 Fair CLR 98.6 44.6 16% 95 29.88 0.0
Date Time (pdt) Wind (mph) Vis. (mi.) Weather Sky Cond. Air Dwpt Max. Min. Relative Humidity Wind Chill (°F) Heat Index (°F) altimeter (in) sea level (mb) 1 hr 3 hr 6 hr
6 hour
Temperature (ºF) Pressure Precipitation (in)